LiveATC.Net - Listen to live air traffic control over the Internet!


ICAO: KTTN  IATA: TTN   Airport: Trenton Mercer Airport
City: Trenton   State/Province: New Jersey
Country: United States   Continent: North America
KTTN METAR Weather: KTTN 281253Z 24004KT 10SM SCT008 BKN011 BKN100 19/19 A2973 RMK AO2 RAB09E20 SLP059 P0000 T01940189
KTTN Flight Activity (FlightAware)
KTTN Airport Info   (iFlightPlanner)
KTTN VFR Sectional Chart   (iFlightPlanner) 
KTTN IFR Low Altitude Chart   (iFlightPlanner) 
KTTN IFR High Altitude Chart   (iFlightPlanner) 

KTTN Ground/Tower
Feed Status: UP   Listeners: 1
Listen in your browser - HTML5 player (in browser, HTML5)
Click here to listen with your own player (launches your MP3 player)
Archive Access: KTTN Ground/Tower
FacilityFrequency
Trenton Ground121.900
Trenton Tower120.700

NOTICE

Unauthorized use prohibited. See LiveATC.net Terms of Service


Airport/ARTCC Code
Frequency Search
(e.g., 124.400, 128.75)
Site-wide search
 


Browse Feeds
Top 50 Feeds
HF Oceanic Feeds
Coverage Map
Bad Weather Areas

LiveATC FAQ
Offer LiveATC feed
Contact LiveATC.net
Press Inquiries

LiveATC on iPhone
LiveATC on Android

LiveATC Mobile
(Mobile browser)

ATC Audio Archives
Interesting Recordings

LiveATC Forums


Home Page
About LiveATC.net


Terms of Use
Privacy Policy

AIRMETs/SIGMETs

FAA Airport Status
NAS Status
Arrival Demand


Server Software By:
Icecast.org
Liquidsoap